Total_Precipitation_Accumulation
0.00 0.00 0.00 0.00 0.00 0.00 0.00 0.01 0.09 0.47 0.99 0.96 0.56 0.42 0.16 0.07 0.20 0.08 0.02 0.01 0.01 0.00 0.00 0.00 0.04 0.06 0.00 0.00 0.00 0.00 0.00 0.00 0.00 0.00 0.02 0.05 0.10 0.04 0.06 0.18 0.10 0.07 0.08 0.08
0.00 0.00 0.00 0.00 0.00 0.00 0.00 0.00 0.05 0.18 0.54 1.06 1.22 0.79 0.39 0.28 0.27 0.06 0.03 0.02 0.03 0.01 0.00 0.00 0.00 0.00 0.00 0.00 0.00 0.00 0.00 0.00 0.00 0.00 0.02 0.04 0.17 0.11 0.17 0.21 0.14 0.08 0.08 0.10
0.00 0.00 0.00 0.00 0.00 0.00 0.00 0.01 0.02 0.06 0.13 0.55 1.73 1.64 0.92 0.68 0.37 0.22 0.03 0.03 0.06 0.01 0.00 0.01 0.03 0.00 0.00 0.00 0.00 0.00 0.00 0.00 0.00 0.01 0.02 0.16 0.39 0.44 0.17 0.15 0.10 0.05 0.04 0.05
0.00 0.00 0.00 0.00 0.00 0.00 0.00 0.00 0.00 0.02 0.03 0.05 0.10 0.81 0.78 0.54 0.67 0.37 0.19 0.06 0.07 0.03 0.01 0.00 0.01 0.00 0.00 0.00 0.00 0.00 0.00 0.00 0.00 0.01 0.03 0.06 0.05 0.11 0.10 0.06 0.06 0.08 0.08 0.08
0.00 0.00 0.00 0.00 0.00 0.00 0.01 0.00 0.00 0.00 0.02 0.01 0.02 0.24 0.65 0.52 0.59 0.50 0.16 0.13 0.03 0.06 0.03 0.01 0.01 0.02 0.00 0.00 0.00 0.00 0.00 0.00 0.00 0.00 0.08 0.06 0.09 0.16 0.26 0.17 0.10 0.13 0.14 0.15
0.00 0.00 0.00 0.00 0.00 0.00 0.00 0.00 0.01 0.06 0.05 0.02 0.01 0.09 0.46 0.71 0.47 0.46 0.10 0.09 0.03 0.03 0.06 0.02 0.01 0.01 0.01 0.00 0.00 0.00 0.00 0.00 0.00 0.00 0.03 0.04 0.09 0.10 0.19 0.25 0.19 0.09 0.04 0.08
0.00 0.00 0.00 0.00 0.00 0.00 0.00 0.00 0.04 0.07 0.03 0.00 0.00 0.03 0.18 0.60 0.47 0.27 0.20 0.17 0.16 0.11 0.08 0.03 0.04 0.01 0.00 0.00 0.00 0.00 0.00 0.00 0.00 0.00 0.01 0.03 0.10 0.14 0.28 0.14 0.11 0.09 0.10 0.05
0.00 0.00 0.00 0.00 0.00 0.00 0.00 0.00 0.00 0.00 0.00 0.00 0.03 0.03 0.01 0.08 0.21 0.34 0.47 0.42 0.66 0.53 0.25 0.11 0.11 0.04 0.00 0.00 0.00 0.00 0.00 0.00 0.00 0.00 0.00 0.01 0.05 0.10 0.05 0.09 0.07 0.09 0.07 0.10
0.00 0.00 0.00 0.00 0.00 0.00 0.00 0.00 0.00 0.00 0.00 0.00 0.04 0.02 0.05 0.06 0.10 0.06 0.31 0.52 0.40 0.45 0.37 0.17 0.27 0.30 0.07 0.01 0.00 0.00 0.00 0.00 0.00 0.00 0.00 0.01 0.03 0.03 0.04 0.05 0.03 0.07 0.07 0.19
0.00 0.00 0.00 0.00 0.00 0.00 0.00 0.00 0.00 0.00 0.00 0.02 0.05 0.05 0.06 0.07 0.06 0.10 0.07 0.13 0.17 0.24 0.39 0.37 0.40 0.37 0.41 0.20 0.12 0.13 0.21 0.13 0.04 0.01 0.01 0.01 0.02 0.02 0.03 0.04 0.05 0.08 0.06 0.11
0.00 0.00 0.00 0.00 0.00 0.00 0.00 0.00 0.00 0.00 0.00 0.01 0.10 0.17 0.13 0.11 0.09 0.12 0.12 0.09 0.08 0.09 0.26 0.63 1.41 1.99 1.54 1.39 1.13 0.67 0.59 0.48 0.34 0.12 0.11 0.08 0.04 0.04 0.05 0.02 0.03 0.10 0.08 0.15
0.00 0.00 0.00 0.00 0.00 0.00 0.00 0.00 0.00 0.00 0.00 0.00 0.05 0.24 0.34 0.15 0.11 0.11 0.16 0.17 0.14 0.12 0.19 0.48 0.89 2.29 3.98 2.49 2.65 2.70 1.34 1.11 0.71 0.37 0.25 0.11 0.09 0.12 0.14 0.04 0.04 0.06 0.06 0.11
0.00 0.00 0.00 0.00 0.00 0.00 0.00 0.00 0.00 0.00 0.00 0.00 0.01 0.10 0.27 0.28 0.16 0.07 0.07 0.09 0.10 0.13 0.19 0.25 0.40 0.75 1.39 1.56 1.17 2.94 3.11 2.03 1.61 1.00 0.62 0.37 0.35 0.24 0.14 0.12 0.11 0.06 0.04 0.08
0.01 0.00 0.00 0.00 0.00 0.00 0.00 0.00 0.00 0.00 0.00 0.00 0.01 0.06 0.10 0.04 0.10 0.04 0.01 0.01 0.01 0.02 0.06 0.09 0.19 0.37 0.54 0.77 1.04 0.94 1.22 1.70 1.97 1.42 1.03 0.75 0.65 0.47 0.38 0.30 0.23 0.14 0.10 0.05
0.00 0.00 0.00 0.00 0.00 0.00 0.00 0.00 0.00 0.00 0.00 0.02 0.07 0.08 0.05 0.04 0.02 0.00 0.00 0.00 0.00 0.01 0.01 0.01 0.04 0.09 0.24 0.46 0.44 0.58 0.60 0.51 0.73 0.96 1.71 1.57 1.08 0.91 0.82 0.69 0.45 0.32 0.27 0.17
0.00 0.00 0.00 0.00 0.00 0.00 0.00 0.00 0.00 0.00 0.00 0.00 0.02 0.18 0.11 0.04 0.01 0.00 0.00 0.00 0.00 0.00 0.00 0.01 0.01 0.04 0.09 0.09 0.20 0.40 0.51 0.53 0.51 0.43 0.53 1.01 1.17 0.92 1.02 1.07 0.45 0.27 0.26 0.27
0.00 0.00 0.00 0.01 0.00 0.00 0.00 0.00 0.00 0.00 0.00 0.00 0.01 0.11 0.17 0.03 0.00 0.00 0.00 0.00 0.00 0.00 0.00 0.01 0.03 0.06 0.04 0.03 0.07 0.13 0.17 0.19 0.25 0.27 0.22 0.37 0.61 0.67 0.52 0.45 0.31 0.39 0.42 0.51
0.00 0.00 0.00 0.01 0.00 0.01 0.00 0.00 0.00 0.01 0.01 0.01 0.00 0.00 0.02 0.02 0.00 0.01 0.01 0.00 0.00 0.00 0.00 0.00 0.01 0.03 0.03 0.02 0.01 0.02 0.02 0.03 0.02 0.04 0.10 0.21 0.35 0.39 0.41 0.33 0.32 0.28 0.30 0.43
0.00 0.00 0.00 0.00 0.01 0.01 0.00 0.00 0.00 0.02 0.06 0.06 0.02 0.02 0.00 0.00 0.00 0.00 0.00 0.00 0.00 0.00 0.00 0.00 0.00 0.01 0.01 0.01 0.01 0.00 0.01 0.01 0.02 0.06 0.08 0.09 0.12 0.18 0.23 0.22 0.29 0.34 0.36 0.38
0.00 0.00 0.00 0.00 0.00 0.01 0.01 0.00 0.00 0.00 0.06 0.13 0.05 0.04 0.03 0.01 0.01 0.01 0.00 0.00 0.00 0.00 0.00 0.01 0.01 0.00 0.00 0.00 0.00 0.00 0.00 0.00 0.01 0.02 0.05 0.08 0.09 0.07 0.06 0.08 0.12 0.30 0.39 0.39
0.00 0.00 0.00 0.00 0.00 0.00 0.00 0.00 0.00 0.01 0.03 0.14 0.17 0.19 0.14 0.08 0.08 0.04 0.00 0.00 0.00 0.00 0.00 0.00 0.00 0.00 0.00 0.00 0.00 0.00 0.00 0.00 0.00 0.00 0.03 0.04 0.08 0.14 0.08 0.04 0.03 0.09 0.22 0.30
0.00 0.00 0.00 0.00 0.00 0.00 0.00 0.00 0.00 0.00 0.01 0.06 0.12 0.18 0.18 0.14 0.12 0.07 0.03 0.01 0.00 0.00 0.00 0.00 0.00 0.00 0.00 0.00 0.00 0.00 0.00 0.00 0.00 0.00 0.00 0.02 0.05 0.08 0.14 0.21 0.16 0.09 0.09 0.12
0.00 0.00 0.00 0.00 0.02 0.00 0.00 0.00 0.00 0.00 0.01 0.05 0.09 0.12 0.15 0.17 0.15 0.10 0.05 0.01 0.00 0.00 0.00 0.00 0.00 0.00 0.00 0.00 0.00 0.00 0.00 0.00 0.00 0.00 0.00 0.00 0.02 0.03 0.05 0.08 0.17 0.27 0.21 0.12
0.00 0.00 0.00 0.03 0.02 0.00 0.00 0.00 0.00 0.00 0.03 0.05 0.09 0.09 0.09 0.11 0.13 0.07 0.05 0.02 0.00 0.00 0.00 0.00 0.00 0.00 0.00 0.00 0.00 0.00 0.00 0.00 0.00 0.00 0.00 0.00 0.00 0.00 0.01 0.04 0.07 0.13 0.14 0.10
0.00 0.00 0.00 0.00 0.01 0.01 0.00 0.00 0.00 0.00 0.03 0.05 0.09 0.11 0.09 0.08 0.09 0.06 0.03 0.01 0.00 0.00 0.00 0.00 0.00 0.00 0.00 0.00 0.00 0.00 0.00 0.00 0.00 0.00 0.00 0.00 0.00 0.00 0.00 0.01 0.01 0.02 0.04 0.05
0.00 0.00 0.00 0.00 0.00 0.00 0.00 0.00 0.00 0.00 0.00 0.00 0.02 0.06 0.08 0.07 0.06 0.03 0.04 0.06 0.01 0.00 0.00 0.00 0.01 0.00 0.00 0.00 0.00 0.00 0.00 0.01 0.01 0.00 0.00 0.00 0.00 0.00 0.00 0.00 0.00 0.00 0.00 0.01